EW8865 Weather Reports


Display with metric or nautical units.
time (UTC)temp
F
wind
direction
speed
MPH
gust
MPH
rain 1hr
in
rain 24hr
in
rain mn
in
humidity
%
barometer
mb
20260902170503 65 242 9.0 16.0 0.01 0.31 0.31 92 1015.0
20260902165504 65 261 7.0 16.0 0.01 0.31 0.31 92 1014.9
20260902165003 65 246 11.0 20.0 0.01 0.31 0.31 92 1015.0
20260902164504 65 238 8.0 14.0 0.01 0.31 0.31 92 1015.0
20260902163504 65 244 11.0 20.0 0.01 0.31 0.31 92 1015.0
20260902163004 65 249 10.0 17.0 0.01 0.31 0.31 92 1015.0
20260902162504 65 253 13.0 20.0 0.01 0.31 0.31 92 1015.1
20260902162004 65 264 11.0 17.0 0.01 0.31 0.31 92 1015.1
20260902161004 65 226 9.0 18.0 0.01 0.31 0.31 92 1015.0
20260902160503 65 236 10.0 17.0 0.01 0.31 0.31 92 1015.0
20260902155503 65 261 10.0 15.0 0.02 0.31 0.31 92 1015.0
20260902155004 65 259 9.0 15.0 0.02 0.31 0.31 92 1015.0
20260902154503 65 241 10.0 20.0 0.02 0.31 0.31 92 1014.9
20260902153503 65 231 11.0 20.0 0.02 0.31 0.31 92 1014.9
20260902152504 65 232 8.0 12.0 0.02 0.31 0.31 93 1015.0
20260902152004 65 256 10.0 16.0 0.02 0.31 0.31 92 1015.0
20260902151504 65 241 8.0 17.0 0.02 0.31 0.31 92 1015.0
20260902150503 66 242 6.0 20.0 0.02 0.30 0.30 92 1015.0
20260902150003 66 252 9.0 20.0 0.01 0.29 0.29 92 1015.0
20260902145503 66 256 8.0 13.0 0.00 0.28 0.28 92 1015.0
20260902144004 66 261 6.0 12.0 0.02 0.28 0.28 92 1015.1
20260902143504 66 257 9.0 14.0 0.02 0.28 0.28 92 1015.1
20260902143004 66 242 7.0 12.0 0.02 0.28 0.28 92 1015.0
20260902142504 66 265 7.0 13.0 0.02 0.28 0.28 92 1015.1
20260902142004 66 238 9.0 13.0 0.03 0.28 0.28 92 1015.1
20260902141504 65 223 7.0 13.0 0.03 0.28 0.28 92 1015.1
20260902140504 66 226 9.0 20.0 0.04 0.28 0.28 92 1015.1
20260902140003 66 233 10.0 21.0 0.05 0.28 0.28 92 1015.2
20260902135504 66 248 13.0 25.0 0.05 0.28 0.28 92 1015.1
20260902135004 66 230 7.0 20.0 0.05 0.28 0.28 92 1015.1
20260902134504 66 214 7.0 13.0 0.03 0.27 0.27 92 1015.0
20260902134003 66 207 9.0 16.0 0.05 0.27 0.27 92 1014.9
20260902133503 66 203 8.0 15.0 0.05 0.27 0.27 92 1014.9
20260902133004 66 201 7.0 13.0 0.05 0.27 0.27 92 1015.0
20260902132503 66 214 8.0 17.0 0.04 0.26 0.26 92 1015.0
20260902132003 66 218 7.0 12.0 0.03 0.25 0.25 92 1014.9
20260902131504 66 220 7.0 13.0 0.03 0.25 0.25 92 1014.9
20260902131004 66 220 7.0 16.0 0.02 0.24 0.24 91 1014.9
20260902130503 66 214 10.0 22.0 0.02 0.24 0.24 91 1014.9
20260902125004 66 206 8.0 17.0 0.02 0.24 0.24 91 1014.9
20260902124503 66 215 8.0 14.0 0.02 0.24 0.24 91 1014.9
20260902124004 66 212 8.0 13.0 0.00 0.22 0.22 90 1014.9
20260902123003 65 199 9.0 20.0 0.00 0.22 0.22 90 1014.9
20260902122504 65 213 9.0 20.0 0.01 0.22 0.22 90 1015.0
20260902122003 65 200 6.0 15.0 0.01 0.22 0.22 92 1014.9
20260902120503 64 195 10.0 15.0 0.03 0.22 0.22 92 1015.2
20260902120004 64 212 7.0 13.0 0.03 0.22 0.22 92 1015.1
20260902115503 64 197 7.0 12.0 0.03 0.22 0.22 92 1015.2
20260902115004 64 168 6.0 10.0 0.04 0.22 0.22 92 1015.2
20260902114503 63 210 6.0 12.0 0.05 0.22 0.22 92 1015.2
20260902114003 63 136 2.0 7.0 0.05 0.22 0.22 92 1015.2
20260902113004 63 114 3.0 6.0 0.05 0.22 0.22 92 1015.5
20260902112504 63 198 3.0 6.0 0.04 0.21 0.21 92 1015.6
20260902112004 63 175 5.0 10.0 0.04 0.21 0.21 92 1015.6
20260902111003 63 176 7.0 12.0 0.02 0.20 0.20 92 1015.7
20260902110503 63 166 3.0 10.0 0.02 0.19 0.19 92 1015.7
20260902105003 62 137 5.0 9.0 0.03 0.18 0.18 92 1016.0
20260902104004 62 138 3.0 5.0 0.03 0.17 0.17 93 1016.2
20260902103503 62 136 3.0 7.0 0.04 0.17 0.17 93 1016.2
20260902103003 62 129 5.0 9.0 0.05 0.17 0.17 93 1016.2
20260902102504 61 144 3.0 8.0 0.06 0.17 0.17 92 1016.2
20260902101504 61 177 2.0 5.0 0.07 0.17 0.17 92 1016.4
20260902101004 61 178 2.0 8.0 0.08 0.17 0.17 92 1016.6
20260902100504 61 177 4.0 8.0 0.09 0.17 0.17 92 1016.6
20260902100004 61 182 0.0 3.0 0.09 0.17 0.17 92 1016.7
20260902095504 61 178 0.0 1.0 0.09 0.16 0.16 92 1016.7
20260902095003 61 178 1.0 2.0 0.09 0.15 0.15 92 1016.8
20260902094503 61 178 0.0 1.0 0.08 0.14 0.14 92 1016.8
20260902094004 61 177 2.0 3.0 0.09 0.14 0.14 92 1016.7
20260902093004 60 175 0.0 7.0 0.08 0.13 0.13 92 1016.8
20260902092504 60 186 2.0 7.0 0.08 0.12 0.12 92 1016.8
20260902092003 60 191 3.0 9.0 0.08 0.11 0.11 92 1016.9
20260902091504 60 133 4.0 8.0 0.07 0.10 0.10 92 1016.9
20260902091003 60 162 3.0 8.0 0.07 0.09 0.09 92 1017.0
20260902090504 60 178 3.0 8.0 0.06 0.08 0.08 92 1017.0
20260902090004 60 162 4.0 9.0 0.06 0.07 0.07 91 1017.0
20260902085504 60 207 4.0 10.0 0.07 0.07 0.07 91 1017.0
20260902085003 60 187 7.0 13.0 0.06 0.06 0.06 91 1017.1
20260902084004 60 209 6.0 13.0 0.06 0.06 0.06 91 1017.1
20260902083503 61 157 8.0 14.0 0.06 0.06 0.06 91 1017.0
20260902083004 61 179 6.0 10.0 0.05 0.05 0.05 91 1017.2
20260902082503 61 216 6.0 10.0 0.04 0.04 0.04 90 1017.3
20260902082004 61 183 7.0 12.0 0.03 0.03 0.03 90 1017.3
20260902081004 61 205 6.0 12.0 0.02 0.02 0.02 90 1017.2
20260902080504 61 229 5.0 8.0 0.02 0.02 0.02 90 1017.2
20260902075503 61 195 3.0 6.0 0.00 0.00 0.00 89 1017.2
20260902075003 61 188 2.0 7.0 0.00 0.00 0.00 89 1017.2
20260902074003 61 180 3.0 6.0 0.00 0.00 0.00 90 1017.2
20260902073504 61 169 3.0 5.0 0.00 0.00 0.00 90 1017.2
20260902073003 60 198 1.0 3.0 0.00 0.00 0.00 90 1017.2
20260902072503 60 199 3.0 3.0 0.00 0.00 0.00 90 1017.2
20260902072003 60 200 2.0 5.0 0.00 0.00 0.00 90 1017.3
20260902071504 60 199 1.0 6.0 0.00 0.00 0.00 90 1017.2
20260902071004 60 206 2.0 8.0 0.00 0.00 0.00 90 1017.2
20260902070504 60 189 5.0 15.0 0.00 0.00 0.00 90 1017.3
20260902070005 60 205 3.0 6.0 0.00 0.00 0.00 90 1017.3
20260902065504 60 194 3.0 6.0 0.00 0.00 0.00 91 1017.3
20260902065004 60 181 1.0 3.0 0.00 0.00 0.00 91 1017.2
20260902064004 60 219 0.0 0.0 0.00 0.00 0.00 91 1017.3
20260902063004 60 222 0.0 0.0 0.00 0.00 0.00 91 1017.2
20260902062504 59 222 0.0 0.0 0.00 0.00 0.00 91 1017.2
20260902062004 59 222 0.0 2.0 0.00 0.00 0.00 91 1017.2
20260902060504 59 224 0.0 0.0 0.00 0.00 0.00 91 1017.1
20260902055503 59 231 0.0 0.0 0.00 0.00 0.00 91 1017.2
20260902055003 59 231 0.0 0.0 0.00 0.00 0.00 91 1017.2
20260902054503 59 232 0.0 0.0 0.00 0.00 0.00 91 1017.0
20260902054004 59 232 0.0 0.0 0.00 0.00 0.00 91 1017.1
20260902053003 59 232 0.0 0.0 0.00 0.00 0.00 91 1017.2
20260902052003 59 232 0.0 0.0 0.00 0.00 0.00 91 1017.2
20260902051503 59 232 0.0 0.0 0.00 0.00 0.00 91 1017.4
20260902051003 59 232 0.0 0.0 0.00 0.00 0.00 91 1017.5
20260902050504 59 232 0.0 0.0 0.00 0.00 0.00 91 1017.4
20260902050005 59 232 0.0 0.0 0.00 0.00 0.00 90 1017.3
20260902045504 59 232 0.0 0.0 0.00 0.00 0.00 90 1017.3
20260902045004 59 232 0.0 0.0 0.00 0.00 0.00 90 1017.2
20260902044504 59 232 0.0 0.0 0.00 0.00 0.00 90 1017.2
20260902044003 59 232 0.0 0.0 0.00 0.00 0.00 90 1017.2
20260902043504 59 232 0.0 0.0 0.00 0.00 0.00 90 1017.3
20260902043003 59 232 0.0 0.0 0.00 0.00 0.00 90 1017.2
20260902042504 59 232 0.0 0.0 0.00 0.00 0.00 90 1017.3
20260902041504 59 232 0.0 0.0 0.00 0.00 0.00 90 1017.5
20260902041003 59 232 0.0 0.0 0.00 0.00 0.00 90 1017.6
20260902040503 59 232 0.0 0.0 0.00 0.00 0.00 90 1017.6
20260902040004 59 232 0.0 0.0 0.00 0.00 0.00 90 1017.6
20260902035504 60 232 0.0 0.0 0.00 0.00 0.00 90 1017.6
20260902035004 60 232 1.0 3.0 0.00 0.00 0.00 89 1017.6
20260902034504 60 229 0.0 0.0 0.00 0.00 0.00 89 1017.6
20260902034003 60 228 0.0 0.0 0.00 0.00 0.00 89 1017.5
20260902033503 60 228 0.0 1.0 0.00 0.00 0.00 89 1017.6
20260902033004 60 228 0.0 1.0 0.00 0.00 0.00 89 1017.8
20260902032504 60 228 1.0 3.0 0.00 0.00 0.00 89 1017.9
20260902032004 60 228 0.0 1.0 0.00 0.00 0.00 89 1017.9
20260902031504 60 228 0.0 0.0 0.00 0.00 0.00 89 1017.8
20260902031004 60 228 0.0 0.0 0.00 0.00 0.00 89 1017.8
20260902030503 60 228 0.0 0.0 0.00 0.00 0.00 89 1017.9
20260902030004 60 228 0.0 1.0 0.00 0.00 0.00 89 1018.0
20260902025504 60 228 1.0 3.0 0.00 0.00 0.00 89 1018.0
20260902025004 60 229 2.0 3.0 0.00 0.00 0.00 89 1018.1
20260902024503 60 229 0.0 1.0 0.00 0.00 0.00 89 1018.2
20260902024004 60 229 0.0 1.0 0.00 0.00 0.00 89 1018.1
20260902023503 60 229 0.0 2.0 0.00 0.00 0.00 89 1018.2
20260902023004 60 229 2.0 3.0 0.00 0.00 0.00 89 1018.3
20260902022503 60 229 2.0 3.0 0.00 0.00 0.00 89 1018.2
20260902022004 60 229 2.0 3.0 0.00 0.00 0.00 89 1018.3
20260902020503 60 233 1.0 3.0 0.00 0.00 0.00 89 1018.2
20260902020003 60 233 2.0 5.0 0.00 0.00 0.00 89 1018.3
20260902015503 60 244 2.0 5.0 0.00 0.00 0.00 89 1018.4
20260902014503 60 245 1.0 3.0 0.00 0.00 0.00 89 1018.6
20260902014003 60 246 2.0 3.0 0.00 0.00 0.00 89 1018.6
20260902013004 60 239 3.0 5.0 0.00 0.00 0.00 89 1018.7
20260902012504 60 230 0.0 3.0 0.00 0.00 0.00 89 1018.7
20260902012004 60 229 1.0 3.0 0.00 0.00 0.00 89 1018.7
20260902011504 60 228 1.0 3.0 0.00 0.00 0.00 89 1018.8
20260902011004 60 215 0.0 2.0 0.00 0.00 0.00 89 1018.8
20260902010504 60 215 0.0 0.0 0.00 0.00 0.00 89 1018.8
20260902005503 60 215 0.0 0.0 0.00 0.00 0.00 89 1019.0
20260902005003 60 215 0.0 0.0 0.00 0.00 0.00 89 1018.9
20260902004503 60 215 0.0 3.0 0.00 0.00 0.00 89 1018.9
20260902004003 60 215 1.0 3.0 0.00 0.00 0.00 89 1018.9
20260902003503 60 213 0.0 0.0 0.00 0.00 0.00 89 1018.9
20260902003003 60 212 0.0 0.0 0.00 0.00 0.00 89 1019.0
20260902002503 60 212 0.0 0.0 0.00 0.00 0.00 89 1019.0
20260902002004 60 212 0.0 0.0 0.00 0.00 0.00 89 1019.0
20260902001503 60 212 0.0 0.0 0.00 0.00 0.00 89 1019.1
20260902000504 60 212 0.0 0.0 0.00 0.00 0.00 90 1019.1
20260902000004 60 212 0.0 0.0 0.00 0.00 0.00 89 1019.1
20260901235004 60 211 0.0 0.0 0.00 0.00 0.00 89 1019.1
20260901234503 60 210 0.0 0.0 0.00 0.00 0.00 89 1019.1
20260901234003 60 210 0.0 0.0 0.00 0.00 0.00 89 1019.1
20260901233503 60 210 0.0 0.0 0.00 0.00 0.00 89 1019.2
20260901233003 60 210 0.0 0.0 0.00 0.00 0.00 89 1019.3
20260901232503 60 210 0.0 0.0 0.00 0.00 0.00 89 1019.3
20260901231503 60 210 1.0 3.0 0.00 0.00 0.00 89 1019.3
20260901231004 60 210 1.0 2.0 0.00 0.00 0.00 89 1019.4
20260901230503 60 210 1.0 3.0 0.00 0.00 0.00 89 1019.4
20260901230004 60 210 1.0 3.0 0.00 0.00 0.00 89 1019.3
20260901225504 60 210 0.0 0.0 0.00 0.00 0.00 89 1019.3
20260901225004 60 210 0.0 0.0 0.00 0.00 0.00 89 1019.2
20260901224504 60 210 0.0 0.0 0.00 0.00 0.00 89 1019.2
20260901224004 60 210 1.0 3.0 0.00 0.00 0.00 89 1019.2
20260901223503 60 210 1.0 3.0 0.00 0.00 0.00 89 1019.1
20260901222004 60 210 2.0 5.0 0.00 0.00 0.00 88 1019.1
20260901220003 60 199 1.0 2.0 0.00 0.00 0.00 88 1019.2
20260901215504 60 199 1.0 3.0 0.00 0.00 0.00 88 1019.3
20260901215004 60 198 0.0 3.0 0.00 0.00 0.00 88 1019.3
20260901214504 60 198 0.0 0.0 0.00 0.00 0.00 87 1019.3
20260901213504 60 198 0.0 0.0 0.00 0.00 0.00 87 1019.3
20260901213004 60 198 0.0 0.0 0.00 0.00 0.00 87 1019.4
20260901212503 60 198 0.0 0.0 0.00 0.00 0.00 87 1019.5
20260901212003 60 198 0.0 0.0 0.00 0.00 0.00 87 1019.5
20260901211003 60 198 0.0 0.0 0.00 0.00 0.00 86 1019.5
20260901210503 60 198 0.0 1.0 0.00 0.00 0.00 86 1019.5
20260901210004 60 198 1.0 2.0 0.00 0.00 0.00 86 1019.5
20260901205503 60 198 2.0 3.0 0.00 0.00 0.00 85 1019.5
20260901205004 60 198 0.0 1.0 0.00 0.00 0.00 85 1019.5
20260901204504 60 198 1.0 3.0 0.00 0.00 0.00 85 1019.5
20260901203504 60 197 0.0 2.0 0.00 0.00 0.00 85 1019.5
20260901203003 60 197 1.0 3.0 0.00 0.00 0.00 84 1019.5
20260901202503 60 197 2.0 3.0 0.00 0.00 0.00 84 1019.5
20260901202003 60 197 1.0 3.0 0.00 0.00 0.00 84 1019.4
20260901201503 60 197 2.0 3.0 0.00 0.00 0.00 83 1019.5
20260901201004 60 196 2.0 3.0 0.00 0.00 0.00 83 1019.5
20260901200004 61 272 0.0 3.0 0.00 0.00 0.00 82 1019.3
20260901195504 61 272 1.0 2.0 0.00 0.00 0.00 82 1019.4
20260901195004 61 272 0.0 0.0 0.00 0.00 0.00 82 1019.4
20260901194504 61 272 1.0 2.0 0.00 0.00 0.00 82 1019.4
20260901194004 61 273 1.0 3.0 0.00 0.00 0.00 81 1019.4
20260901193504 61 272 3.0 6.0 0.00 0.00 0.00 81 1019.4
20260901193004 62 265 2.0 3.0 0.00 0.00 0.00 80 1019.5
20260901192504 62 264 2.0 7.0 0.00 0.00 0.00 80 1019.3
20260901192004 62 280 4.0 7.0 0.00 0.00 0.00 80 1019.4
20260901191504 62 281 4.0 8.0 0.00 0.00 0.00 79 1019.4
20260901191004 62 279 5.0 9.0 0.00 0.00 0.00 78 1019.4
20260901190504 62 275 2.0 3.0 0.00 0.00 0.00 78 1019.3
20260901190003 62 281 2.0 3.0 0.00 0.00 0.00 78 1019.3
20260901185003 62 262 3.0 6.0 0.00 0.00 0.00 78 1019.3
20260901184504 62 265 3.0 6.0 0.00 0.00 0.00 79 1019.2
20260901184004 63 261 4.0 9.0 0.00 0.00 0.00 79 1019.2
20260901183503 63 253 5.0 9.0 0.00 0.00 0.00 79 1019.2
20260901183004 63 270 8.0 12.0 0.00 0.00 0.00 78 1019.2
20260901182503 63 234 6.0 12.0 0.00 0.00 0.00 77 1019.2
20260901182004 64 263 6.0 8.0 0.00 0.00 0.00 78 1019.2
20260901181503 64 260 4.0 9.0 0.00 0.00 0.00 77 1019.1
20260901181004 64 252 6.0 9.0 0.00 0.00 0.00 77 1019.2
20260901180003 64 268 6.0 12.0 0.00 0.00 0.00 76 1019.1
20260901175503 64 249 6.0 10.0 0.00 0.00 0.00 76 1019.2
20260901175004 64 267 6.0 8.0 0.00 0.00 0.00 75 1019.1
20260901174504 64 253 6.0 10.0 0.00 0.00 0.00 75 1019.1
20260901173503 65 234 7.0 13.0 0.00 0.00 0.00 73 1019.2
20260901172504 65 269 7.0 12.0 0.00 0.00 0.00 72 1019.4
20260901172004 65 265 7.0 13.0 0.00 0.00 0.00 72 1019.5
20260901171503 65 266 6.0 12.0 0.00 0.00 0.00 72 1019.5
20260901171004 65 259 8.0 12.0 0.00 0.00 0.00 71 1019.4